Temp: 0.3°C   Baro: 1049.4mb
  Wind: 0.0mph   Dir: NW (316°)
  Rain: 0.0mm (0.0mm/hr)
  Solar: 0W/m2  Hum: 93%
 
Bath Spa Weather Historical Data
Daily Summary for October 29, 2019 Units:  Metric    English   Both
Next Day »
Daily Weekly Monthly Yearly Custom
  High: Low: Average:
Temperature: 10.5 °C 6.3 °C 8.3 °C
Dew Point: 6.9 °C 4.1 °C 5.5 °C
Humidity: 87% 78% 83%
Wind Speed: 20.9km/h 0.0km/h 7km/h
Wind Gust: 27.4km/h - -
Wind direction- - East
Pressure: 1024.6 hPa 1023.2 hPa -
Precipitation: 0.0 mm    
Historical Graphs
 
 
Tabular Data for October 29, 2019
Time Temperature Dew Point Pressure Wind direction Wind Speed Wind Gust Humidity Rainfall Rate (Hourly) solar
00:00 7.5 °C 5.3 °C 1023.6 hPa ENE 14.3 km/h 17.7 km/h 86% 0.0 mm 0.00 W/m2
00:05 7.5 °C 5.3 °C 1023.6 hPa NNE 3.2 km/h 16.1 km/h 86% 0.0 mm 0.00 W/m2
00:10 7.5 °C 5.3 °C 1023.6 hPa NNE 3.2 km/h 16.1 km/h 86% 0.0 mm 0.00 W/m2
00:15 7.5 °C 5.3 °C 1023.6 hPa NE 4.7 km/h 17.7 km/h 86% 0.0 mm 0.00 W/m2
00:20 7.5 °C 5.3 °C 1023.6 hPa East 9.7 km/h 20.9 km/h 86% 0.0 mm 0.00 W/m2
00:25 7.5 °C 5.3 °C 1023.6 hPa East 7.9 km/h 11.3 km/h 86% 0.0 mm 0.00 W/m2
00:30 7.5 °C 5.3 °C 1023.6 hPa ESE 3.2 km/h 17.7 km/h 86% 0.0 mm 0.00 W/m2
00:35 7.5 °C 5.3 °C 1023.6 hPa Calm   8.0 km/h 86% 0.0 mm 0.00 W/m2
00:40 7.5 °C 5.3 °C 1023.6 hPa ENE 4.7 km/h 16.1 km/h 86% 0.0 mm 0.00 W/m2
00:45 7.4 °C 5.2 °C 1023.6 hPa East 6.4 km/h 19.3 km/h 86% 0.0 mm 0.00 W/m2
00:50 7.4 °C 5.2 °C 1023.6 hPa East 11.1 km/h 14.5 km/h 86% 0.0 mm 0.00 W/m2
00:55 7.4 °C 5.2 °C 1023.6 hPa East 14.3 km/h 17.7 km/h 86% 0.0 mm 0.00 W/m2
01:00 7.4 °C 5.2 °C 1023.6 hPa East 17.7 km/h 19.3 km/h 86% 0.0 mm 0.00 W/m2
01:05 7.4 °C 5.2 °C 1023.6 hPa NE 1.4 km/h 16.1 km/h 86% 0.0 mm 0.00 W/m2
01:10 7.4 °C 5.2 °C 1023.6 hPa ENE 7.9 km/h 19.3 km/h 86% 0.0 mm 0.00 W/m2
01:15 7.3 °C 5.1 °C 1023.6 hPa NE 11.1 km/h 12.9 km/h 86% 0.0 mm 0.00 W/m2
01:20 7.3 °C 5.1 °C 1023.6 hPa ENE 11.1 km/h 16.1 km/h 86% 0.0 mm 0.00 W/m2
01:25 7.3 °C 5.1 °C 1023.6 hPa NNE 11.1 km/h 12.9 km/h 86% 0.0 mm 0.00 W/m2
01:30 7.3 °C 5.1 °C 1023.6 hPa ESE 7.9 km/h 9.7 km/h 86% 0.0 mm 0.00 W/m2
01:35 7.3 °C 5.1 °C 1023.6 hPa East 7.9 km/h 17.7 km/h 86% 0.0 mm 0.00 W/m2
01:40 7.2 °C 5.0 °C 1023.6 hPa East 7.9 km/h 11.3 km/h 86% 0.0 mm 0.00 W/m2
01:45 7.2 °C 5.0 °C 1023.2 hPa East 9.7 km/h 22.5 km/h 86% 0.0 mm 0.00 W/m2
01:50 7.2 °C 5.0 °C 1023.6 hPa East 4.7 km/h 14.5 km/h 86% 0.0 mm 0.00 W/m2
01:55 7.1 °C 4.9 °C 1023.6 hPa East 6.4 km/h 22.5 km/h 86% 0.0 mm 0.00 W/m2
02:00 7.2 °C 5.0 °C 1023.6 hPa NNE 13.0 km/h 16.1 km/h 86% 0.0 mm 0.00 W/m2
02:05 7.1 °C 5.1 °C 1023.6 hPa ENE 6.4 km/h 16.1 km/h 87% 0.0 mm 0.00 W/m2
02:10 7.1 °C 4.9 °C 1023.6 hPa NE 4.7 km/h 12.9 km/h 86% 0.0 mm 0.00 W/m2
02:15 7.1 °C 4.9 °C 1023.2 hPa Calm   22.5 km/h 86% 0.0 mm 0.00 W/m2
02:20 7.0 °C 4.8 °C 1023.2 hPa Calm   11.3 km/h 86% 0.0 mm 0.00 W/m2
02:25 7.0 °C 5.0 °C 1023.2 hPa NE 4.7 km/h 20.9 km/h 87% 0.0 mm 0.00 W/m2
02:30 6.9 °C 4.9 °C 1023.2 hPa ESE 9.7 km/h 12.9 km/h 87% 0.0 mm 0.00 W/m2
02:35 6.9 °C 4.9 °C 1023.2 hPa ESE 6.4 km/h 9.7 km/h 87% 0.0 mm 0.00 W/m2
02:40 6.9 °C 4.9 °C 1023.2 hPa East 14.3 km/h 14.5 km/h 87% 0.0 mm 0.00 W/m2
02:45 6.9 °C 4.9 °C 1023.2 hPa NE 7.9 km/h 17.7 km/h 87% 0.0 mm 0.00 W/m2
02:50 6.9 °C 4.9 °C 1023.6 hPa ESE 19.5 km/h 19.3 km/h 87% 0.0 mm 0.00 W/m2
02:55 6.9 °C 4.9 °C 1023.2 hPa East 17.7 km/h 24.1 km/h 87% 0.0 mm 0.00 W/m2
03:00 6.9 °C 4.9 °C 1023.6 hPa East 7.9 km/h 19.3 km/h 87% 0.0 mm 0.00 W/m2
03:05 6.9 °C 4.9 °C 1023.6 hPa ESE 9.7 km/h 16.1 km/h 87% 0.0 mm 0.00 W/m2
03:10 6.9 °C 4.9 °C 1023.2 hPa ESE 3.2 km/h 11.3 km/h 87% 0.0 mm 0.00 W/m2
03:15 6.8 °C 4.8 °C 1023.2 hPa East 7.9 km/h 14.5 km/h 87% 0.0 mm 0.00 W/m2
03:20 6.8 °C 4.8 °C 1023.6 hPa East 1.4 km/h 12.9 km/h 87% 0.0 mm 0.00 W/m2
03:25 6.8 °C 4.8 °C 1023.6 hPa East 7.9 km/h 16.1 km/h 87% 0.0 mm 0.00 W/m2
03:30 6.8 °C 4.8 °C 1023.2 hPa Calm   14.5 km/h 87% 0.0 mm 0.00 W/m2
03:35 6.8 °C 4.8 °C 1023.6 hPa SE 11.1 km/h 16.1 km/h 87% 0.0 mm 0.00 W/m2
03:40 6.8 °C 4.8 °C 1023.2 hPa ESE 6.4 km/h 20.9 km/h 87% 0.0 mm 0.00 W/m2
03:45 6.7 °C 4.7 °C 1023.2 hPa ESE 6.4 km/h 16.1 km/h 87% 0.0 mm 0.00 W/m2
03:50 6.7 °C 4.7 °C 1023.2 hPa ENE 6.4 km/h 16.1 km/h 87% 0.0 mm 0.00 W/m2
03:55 6.7 °C 4.7 °C 1023.6 hPa ESE 7.9 km/h 17.7 km/h 87% 0.0 mm 0.00 W/m2
04:00 6.7 °C 4.7 °C 1023.2 hPa ENE 3.2 km/h 24.1 km/h 87% 0.0 mm 0.00 W/m2
04:05 6.7 °C 4.7 °C 1023.6 hPa ENE 7.9 km/h 20.9 km/h 87% 0.0 mm 0.00 W/m2
04:10 6.7 °C 4.7 °C 1023.6 hPa East 20.9 km/h 20.9 km/h 87% 0.0 mm 0.00 W/m2
04:15 6.6 °C 4.6 °C 1023.2 hPa East 14.3 km/h 22.5 km/h 87% 0.0 mm 0.00 W/m2
04:20 6.6 °C 4.6 °C 1023.2 hPa East 11.1 km/h 20.9 km/h 87% 0.0 mm 0.00 W/m2
04:25 6.6 °C 4.6 °C 1023.2 hPa East 7.9 km/h 17.7 km/h 87% 0.0 mm 0.00 W/m2
04:30 6.6 °C 4.6 °C 1023.2 hPa NE 13.0 km/h 19.3 km/h 87% 0.0 mm 0.00 W/m2
04:35 6.6 °C 4.6 °C 1023.2 hPa ESE 17.7 km/h 17.7 km/h 87% 0.0 mm 0.00 W/m2
04:40 6.6 °C 4.6 °C 1023.2 hPa SE 1.4 km/h 12.9 km/h 87% 0.0 mm 0.00 W/m2
04:45 6.5 °C 4.5 °C 1023.2 hPa NE 7.9 km/h 16.1 km/h 87% 0.0 mm 0.00 W/m2
04:50 6.5 °C 4.5 °C 1023.6 hPa ESE 4.7 km/h 16.1 km/h 87% 0.0 mm 0.00 W/m2
04:55 6.6 °C 4.6 °C 1023.6 hPa NE 4.7 km/h 12.9 km/h 87% 0.0 mm 0.00 W/m2
05:00 6.5 °C 4.5 °C 1023.6 hPa ENE 7.9 km/h 16.1 km/h 87% 0.0 mm 0.00 W/m2
05:05 6.6 °C 4.4 °C 1023.2 hPa SE 3.2 km/h 17.7 km/h 86% 0.0 mm 0.00 W/m2
05:10 6.5 °C 4.3 °C 1023.2 hPa ESE 9.7 km/h 11.3 km/h 86% 0.0 mm 0.00 W/m2
05:15 6.6 °C 4.4 °C 1023.6 hPa NNE 4.7 km/h 24.1 km/h 86% 0.0 mm 0.00 W/m2
05:20 6.5 °C 4.3 °C 1023.6 hPa NE 11.1 km/h 14.5 km/h 86% 0.0 mm 0.00 W/m2
05:25 6.5 °C 4.3 °C 1023.2 hPa East 14.3 km/h 24.1 km/h 86% 0.0 mm 0.00 W/m2
05:30 6.5 °C 4.3 °C 1023.2 hPa ENE 20.9 km/h 20.9 km/h 86% 0.0 mm 0.00 W/m2
05:35 6.5 °C 4.3 °C 1023.2 hPa East 11.1 km/h 24.1 km/h 86% 0.0 mm 0.00 W/m2
05:40 6.5 °C 4.3 °C 1023.2 hPa East 11.1 km/h 20.9 km/h 86% 0.0 mm 0.00 W/m2
05:45 6.4 °C 4.2 °C 1023.2 hPa NE 6.4 km/h 16.1 km/h 86% 0.0 mm 0.00 W/m2
05:50 6.4 °C 4.2 °C 1023.2 hPa East 17.7 km/h 20.9 km/h 86% 0.0 mm 0.00 W/m2
05:55 6.4 °C 4.2 °C 1023.2 hPa East 3.2 km/h 12.9 km/h 86% 0.0 mm 0.00 W/m2
06:00 6.4 °C 4.2 °C 1023.2 hPa East 9.7 km/h 14.5 km/h 86% 0.0 mm 0.00 W/m2
06:05 6.3 °C 4.1 °C 1023.2 hPa NE 9.7 km/h 14.5 km/h 86% 0.0 mm 0.00 W/m2
06:10 6.4 °C 4.2 °C 1023.6 hPa ENE 4.7 km/h 17.7 km/h 86% 0.0 mm 0.00 W/m2
06:15 6.4 °C 4.2 °C 1023.2 hPa NE 4.7 km/h 12.9 km/h 86% 0.0 mm 0.00 W/m2
06:20 6.4 °C 4.2 °C 1023.6 hPa Calm   17.7 km/h 86% 0.0 mm 0.00 W/m2
06:25 6.3 °C 4.1 °C 1023.6 hPa ENE 6.4 km/h 16.1 km/h 86% 0.0 mm 0.00 W/m2
06:30 6.4 °C 4.2 °C 1023.6 hPa ENE 4.7 km/h 14.5 km/h 86% 0.0 mm 0.00 W/m2
06:35 6.4 °C 4.2 °C 1023.6 hPa NE 6.4 km/h 17.7 km/h 86% 0.0 mm 0.00 W/m2
06:40 6.3 °C 4.1 °C 1023.9 hPa East 4.7 km/h 8.0 km/h 86% 0.0 mm 0.00 W/m2
06:45 6.3 °C 4.1 °C 1023.9 hPa East 7.9 km/h 9.7 km/h 86% 0.0 mm 0.00 W/m2
06:50 6.3 °C 4.1 °C 1023.9 hPa ESE 1.4 km/h 12.9 km/h 86% 0.0 mm 0.00 W/m2
06:55 6.3 °C 4.1 °C 1023.9 hPa East 4.7 km/h 16.1 km/h 86% 0.0 mm 0.00 W/m2
07:00 6.3 °C 4.1 °C 1023.9 hPa ENE 4.7 km/h 16.1 km/h 86% 0.0 mm 0.00 W/m2
07:05 6.3 °C 4.1 °C 1024.3 hPa ENE 11.1 km/h 14.5 km/h 86% 0.0 mm 5.00 W/m2
07:10 6.3 °C 4.1 °C 1024.3 hPa NNE 7.9 km/h 20.9 km/h 86% 0.0 mm 7.00 W/m2
07:15 6.3 °C 4.1 °C 1023.9 hPa NE 6.4 km/h 16.1 km/h 86% 0.0 mm 9.00 W/m2
07:20 6.3 °C 4.1 °C 1023.9 hPa ENE 3.2 km/h 17.7 km/h 86% 0.0 mm 14.00 W/m2
07:25 6.3 °C 4.1 °C 1023.9 hPa East 11.1 km/h 11.3 km/h 86% 0.0 mm 16.00 W/m2
07:30 6.3 °C 4.1 °C 1024.3 hPa NE 1.4 km/h 17.7 km/h 86% 0.0 mm 18.00 W/m2
07:35 6.3 °C 4.1 °C 1024.3 hPa ENE 6.4 km/h 19.3 km/h 86% 0.0 mm 19.00 W/m2
07:40 6.4 °C 4.2 °C 1024.3 hPa NE 4.7 km/h 11.3 km/h 86% 0.0 mm 21.00 W/m2
07:45 6.4 °C 4.1 °C 1024.3 hPa ENE 11.1 km/h 20.9 km/h 85% 0.0 mm 26.00 W/m2
07:50 6.4 °C 4.1 °C 1024.3 hPa East 13.0 km/h 22.5 km/h 85% 0.0 mm 35.00 W/m2
07:55 6.4 °C 4.1 °C 1024.3 hPa NE 6.4 km/h 16.1 km/h 85% 0.0 mm 40.00 W/m2
08:00 6.4 °C 4.1 °C 1024.3 hPa East 13.0 km/h 14.5 km/h 85% 0.0 mm 46.00 W/m2
08:05 6.5 °C 4.2 °C 1024.6 hPa East 6.4 km/h 16.1 km/h 85% 0.0 mm 49.00 W/m2
08:10 6.5 °C 4.2 °C 1024.6 hPa SE 6.4 km/h 11.3 km/h 85% 0.0 mm 53.00 W/m2
08:15 6.6 °C 4.3 °C 1024.6 hPa ENE 11.1 km/h 14.5 km/h 85% 0.0 mm 60.00 W/m2
08:20 6.6 °C 4.3 °C 1024.6 hPa North 7.9 km/h 17.7 km/h 85% 0.0 mm 63.00 W/m2
08:25 6.6 °C 4.3 °C 1024.6 hPa ENE 7.9 km/h 11.3 km/h 85% 0.0 mm 67.00 W/m2
08:30 6.6 °C 4.3 °C 1024.3 hPa East 11.1 km/h 14.5 km/h 85% 0.0 mm 70.00 W/m2
08:35 6.6 °C 4.1 °C 1024.6 hPa East 9.7 km/h 16.1 km/h 84% 0.0 mm 69.00 W/m2
08:40 6.7 °C 4.2 °C 1024.6 hPa East 1.4 km/h 14.5 km/h 84% 0.0 mm 77.00 W/m2
08:45 6.7 °C 4.2 °C 1024.6 hPa ENE 14.3 km/h 19.3 km/h 84% 0.0 mm 86.00 W/m2
08:50 6.8 °C 4.3 °C 1024.6 hPa NNE 1.4 km/h 11.3 km/h 84% 0.0 mm 93.00 W/m2
08:55 6.9 °C 4.4 °C 1024.6 hPa NE 3.2 km/h 27.4 km/h 84% 0.0 mm 107.00 W/m2
09:00 6.9 °C 4.4 °C 1024.6 hPa SE 11.1 km/h 17.7 km/h 84% 0.0 mm 105.00 W/m2
09:05 7.0 °C 4.5 °C 1024.6 hPa East 1.4 km/h 16.1 km/h 84% 0.0 mm 91.00 W/m2
09:10 7.0 °C 4.3 °C 1024.6 hPa East 13.0 km/h 20.9 km/h 83% 0.0 mm 97.00 W/m2
09:15 7.1 °C 4.4 °C 1024.6 hPa ENE 3.2 km/h 17.7 km/h 83% 0.0 mm 113.00 W/m2
09:20 7.1 °C 4.4 °C 1024.6 hPa East 14.3 km/h 16.1 km/h 83% 0.0 mm 121.00 W/m2
09:25 7.2 °C 4.5 °C 1024.6 hPa Calm   8.0 km/h 83% 0.0 mm 127.00 W/m2
09:30 7.3 °C 4.6 °C 1024.6 hPa ESE 16.3 km/h 19.3 km/h 83% 0.0 mm 132.00 W/m2
09:35 7.3 °C 4.6 °C 1024.6 hPa East 11.1 km/h 17.7 km/h 83% 0.0 mm 134.00 W/m2
09:40 7.4 °C 4.7 °C 1024.6 hPa East 4.7 km/h 14.5 km/h 83% 0.0 mm 134.00 W/m2
09:45 7.5 °C 4.6 °C 1024.6 hPa NE 1.4 km/h 14.5 km/h 82% 0.0 mm 128.00 W/m2
09:50 7.6 °C 4.9 °C 1024.6 hPa NE 7.9 km/h 11.3 km/h 83% 0.0 mm 132.00 W/m2
09:55 7.6 °C 4.7 °C 1024.6 hPa ENE 6.4 km/h 9.7 km/h 82% 0.0 mm 132.00 W/m2
10:00 7.7 °C 4.8 °C 1024.6 hPa SE 7.9 km/h 16.1 km/h 82% 0.0 mm 142.00 W/m2
10:05 7.8 °C 4.9 °C 1024.6 hPa SE 7.9 km/h 8.0 km/h 82% 0.0 mm 148.00 W/m2
10:10 7.9 °C 5.0 °C 1024.3 hPa NE 3.2 km/h 11.3 km/h 82% 0.0 mm 155.00 W/m2
10:15 8.0 °C 5.1 °C 1024.3 hPa East 4.7 km/h 20.9 km/h 82% 0.0 mm 169.00 W/m2
10:20 8.1 °C 5.2 °C 1024.6 hPa NNE 9.7 km/h 11.3 km/h 82% 0.0 mm 176.00 W/m2
10:25 8.2 °C 5.3 °C 1024.3 hPa East 6.4 km/h 17.7 km/h 82% 0.0 mm 169.00 W/m2
10:30 8.3 °C 5.4 °C 1024.6 hPa SE 11.1 km/h 14.5 km/h 82% 0.0 mm 162.00 W/m2
10:35 8.3 °C 5.2 °C 1024.3 hPa ESE 6.4 km/h 14.5 km/h 81% 0.0 mm 162.00 W/m2
10:40 8.4 °C 5.3 °C 1024.3 hPa East 7.9 km/h 17.7 km/h 81% 0.0 mm 160.00 W/m2
10:45 8.4 °C 5.3 °C 1024.3 hPa NE 6.4 km/h 11.3 km/h 81% 0.0 mm 167.00 W/m2
10:50 8.5 °C 5.4 °C 1024.3 hPa NE 9.7 km/h 19.3 km/h 81% 0.0 mm 167.00 W/m2
10:55 8.6 °C 5.5 °C 1024.6 hPa SE 11.1 km/h 14.5 km/h 81% 0.0 mm 148.00 W/m2
11:00 8.6 °C 5.5 °C 1024.3 hPa ENE 14.3 km/h 19.3 km/h 81% 0.0 mm 142.00 W/m2
11:05 8.7 °C 5.4 °C 1024.3 hPa East 7.9 km/h 16.1 km/h 80% 0.0 mm 137.00 W/m2
11:10 8.7 °C 5.4 °C 1024.3 hPa NE 3.2 km/h 11.3 km/h 80% 0.0 mm 137.00 W/m2
11:15 8.7 °C 5.4 °C 1024.3 hPa SE 3.2 km/h 11.3 km/h 80% 0.0 mm 149.00 W/m2
11:20 8.8 °C 5.5 °C 1024.3 hPa SE 11.1 km/h 14.5 km/h 80% 0.0 mm 156.00 W/m2
11:25 8.8 °C 5.5 °C 1024.3 hPa Calm   20.9 km/h 80% 0.0 mm 165.00 W/m2
11:30 8.8 °C 5.5 °C 1024.3 hPa SE 1.4 km/h 14.5 km/h 80% 0.0 mm 167.00 W/m2
11:35 8.9 °C 5.6 °C 1024.3 hPa East 11.1 km/h 16.1 km/h 80% 0.0 mm 169.00 W/m2
11:40 8.9 °C 5.6 °C 1023.9 hPa East 13.0 km/h 20.9 km/h 80% 0.0 mm 171.00 W/m2
11:45 9.0 °C 5.7 °C 1023.9 hPa East 1.4 km/h 25.7 km/h 80% 0.0 mm 174.00 W/m2
11:50 9.1 °C 5.8 °C 1023.9 hPa ESE 7.9 km/h 14.5 km/h 80% 0.0 mm 172.00 W/m2
11:55 9.2 °C 5.9 °C 1023.9 hPa ENE 3.2 km/h 11.3 km/h 80% 0.0 mm 172.00 W/m2
12:00 9.2 °C 5.9 °C 1023.9 hPa ENE 13.0 km/h 12.9 km/h 80% 0.0 mm 181.00 W/m2
12:05 9.3 °C 5.8 °C 1023.9 hPa SE 14.3 km/h 14.5 km/h 79% 0.0 mm 183.00 W/m2
12:10 9.4 °C 5.9 °C 1023.9 hPa ENE 4.7 km/h 11.3 km/h 79% 0.0 mm 183.00 W/m2
12:15 9.4 °C 5.9 °C 1023.9 hPa ESE 20.9 km/h 22.5 km/h 79% 0.0 mm 171.00 W/m2
12:20 9.5 °C 6.0 °C 1023.9 hPa East 7.9 km/h 14.5 km/h 79% 0.0 mm 148.00 W/m2
12:25 9.6 °C 6.1 °C 1023.9 hPa East 16.3 km/h 16.1 km/h 79% 0.0 mm 141.00 W/m2
12:30 9.6 °C 6.1 °C 1023.9 hPa ESE 1.4 km/h 16.1 km/h 79% 0.0 mm 141.00 W/m2
12:35 9.6 °C 6.1 °C 1023.9 hPa SE 4.7 km/h 9.7 km/h 79% 0.0 mm 135.00 W/m2
12:40 9.7 °C 6.2 °C 1023.9 hPa ESE 11.1 km/h 11.3 km/h 79% 0.0 mm 128.00 W/m2
12:45 9.7 °C 6.2 °C 1023.9 hPa ENE 9.7 km/h 22.5 km/h 79% 0.0 mm 132.00 W/m2
12:50 9.7 °C 6.2 °C 1023.9 hPa East 11.1 km/h 24.1 km/h 79% 0.0 mm 134.00 W/m2
12:55 9.7 °C 6.2 °C 1023.9 hPa East 6.4 km/h 14.5 km/h 79% 0.0 mm 139.00 W/m2
13:00 9.7 °C 6.2 °C 1023.9 hPa East 6.4 km/h 20.9 km/h 79% 0.0 mm 151.00 W/m2
13:05 9.8 °C 6.3 °C 1023.9 hPa SE 3.2 km/h 22.5 km/h 79% 0.0 mm 134.00 W/m2
13:10 9.9 °C 6.4 °C 1023.9 hPa NE 7.9 km/h 14.5 km/h 79% 0.0 mm 116.00 W/m2
13:15 9.9 °C 6.4 °C 1023.9 hPa SE 6.4 km/h 17.7 km/h 79% 0.0 mm 141.00 W/m2
13:20 9.9 °C 6.4 °C 1023.9 hPa Calm   8.0 km/h 79% 0.0 mm 141.00 W/m2
13:25 10.0 °C 6.5 °C 1023.9 hPa ENE 11.1 km/h 17.7 km/h 79% 0.0 mm 142.00 W/m2
13:30 10.1 °C 6.6 °C 1023.6 hPa Calm   16.1 km/h 79% 0.0 mm 160.00 W/m2
13:35 10.1 °C 6.6 °C 1023.9 hPa East 9.7 km/h 16.1 km/h 79% 0.0 mm 162.00 W/m2
13:40 10.2 °C 6.7 °C 1023.6 hPa Calm   12.9 km/h 79% 0.0 mm 165.00 W/m2
13:45 10.3 °C 6.6 °C 1023.9 hPa ENE 3.2 km/h 11.3 km/h 78% 0.0 mm 156.00 W/m2
13:50 10.3 °C 6.6 °C 1023.9 hPa ESE 9.7 km/h 17.7 km/h 78% 0.0 mm 142.00 W/m2
13:55 10.3 °C 6.6 °C 1023.9 hPa East 3.2 km/h 12.9 km/h 78% 0.0 mm 132.00 W/m2
14:00 10.3 °C 6.6 °C 1023.9 hPa ESE 6.4 km/h 12.9 km/h 78% 0.0 mm 130.00 W/m2
14:05 10.4 °C 6.7 °C 1023.6 hPa East 7.9 km/h 17.7 km/h 78% 0.0 mm 132.00 W/m2
14:10 10.4 °C 6.7 °C 1023.9 hPa ESE 6.4 km/h 9.7 km/h 78% 0.0 mm 111.00 W/m2
14:15 10.4 °C 6.7 °C 1023.9 hPa ESE 13.0 km/h 16.1 km/h 78% 0.0 mm 69.00 W/m2
14:20 10.3 °C 6.6 °C 1023.9 hPa East 7.9 km/h 12.9 km/h 78% 0.0 mm 56.00 W/m2
14:25 10.3 °C 6.6 °C 1023.9 hPa ENE 7.9 km/h 8.0 km/h 78% 0.0 mm 44.00 W/m2
14:30 10.3 °C 6.6 °C 1023.9 hPa ESE 4.7 km/h 12.9 km/h 78% 0.0 mm 40.00 W/m2
14:35 10.3 °C 6.6 °C 1023.9 hPa ESE 1.4 km/h 14.5 km/h 78% 0.0 mm 60.00 W/m2
14:40 10.3 °C 6.6 °C 1023.9 hPa NE 3.2 km/h 12.9 km/h 78% 0.0 mm 88.00 W/m2
14:45 10.4 °C 6.7 °C 1023.6 hPa ENE 3.2 km/h 17.7 km/h 78% 0.0 mm 76.00 W/m2
14:50 10.4 °C 6.7 °C 1023.6 hPa NNE 1.4 km/h 8.0 km/h 78% 0.0 mm 72.00 W/m2
14:55 10.3 °C 6.6 °C 1023.6 hPa East 6.4 km/h 12.9 km/h 78% 0.0 mm 58.00 W/m2
15:00 10.4 °C 6.7 °C 1023.6 hPa ENE 14.3 km/h 19.3 km/h 78% 0.0 mm 56.00 W/m2
15:05 10.4 °C 6.7 °C 1023.6 hPa Calm   14.5 km/h 78% 0.0 mm 58.00 W/m2
15:10 10.4 °C 6.9 °C 1023.6 hPa ESE 3.2 km/h 14.5 km/h 79% 0.0 mm 62.00 W/m2
15:15 10.4 °C 6.9 °C 1023.6 hPa ESE 13.0 km/h 19.3 km/h 79% 0.0 mm 70.00 W/m2
15:20 10.4 °C 6.7 °C 1023.6 hPa ENE 4.7 km/h 12.9 km/h 78% 0.0 mm 72.00 W/m2
15:25 10.5 °C 6.8 °C 1023.6 hPa SE 9.7 km/h 19.3 km/h 78% 0.0 mm 69.00 W/m2
15:30 10.5 °C 6.8 °C 1023.6 hPa ESE 1.4 km/h 16.1 km/h 78% 0.0 mm 60.00 W/m2
15:35 10.5 °C 6.8 °C 1023.6 hPa East 19.5 km/h 19.3 km/h 78% 0.0 mm 53.00 W/m2
15:40 10.5 °C 6.8 °C 1023.6 hPa Calm   8.0 km/h 78% 0.0 mm 47.00 W/m2
15:45 10.4 °C 6.7 °C 1023.6 hPa ESE 11.1 km/h 16.1 km/h 78% 0.0 mm 49.00 W/m2
15:50 10.4 °C 6.7 °C 1023.6 hPa ENE 6.4 km/h 11.3 km/h 78% 0.0 mm 53.00 W/m2
15:55 10.3 °C 6.6 °C 1023.6 hPa ESE 3.2 km/h 8.0 km/h 78% 0.0 mm 47.00 W/m2
16:00 10.3 °C 6.6 °C 1023.6 hPa ESE 3.2 km/h 6.4 km/h 78% 0.0 mm 40.00 W/m2
16:05 10.2 °C 6.7 °C 1023.6 hPa NE 7.9 km/h 12.9 km/h 79% 0.0 mm 32.00 W/m2
16:10 10.2 °C 6.7 °C 1023.6 hPa ESE 3.2 km/h 6.4 km/h 79% 0.0 mm 25.00 W/m2
16:15 10.2 °C 6.7 °C 1023.6 hPa NNE 3.2 km/h 12.9 km/h 79% 0.0 mm 21.00 W/m2
16:20 10.1 °C 6.6 °C 1023.6 hPa East 4.7 km/h 12.9 km/h 79% 0.0 mm 18.00 W/m2
16:25 10.0 °C 6.5 °C 1023.6 hPa East 7.9 km/h 12.9 km/h 79% 0.0 mm 14.00 W/m2
16:30 9.9 °C 6.4 °C 1023.6 hPa East 4.7 km/h 16.1 km/h 79% 0.0 mm 11.00 W/m2
16:35 10.0 °C 6.5 °C 1023.6 hPa East 3.2 km/h 17.7 km/h 79% 0.0 mm 7.00 W/m2
16:40 9.9 °C 6.4 °C 1023.9 hPa East 13.0 km/h 14.5 km/h 79% 0.0 mm 5.00 W/m2
16:45 9.9 °C 6.4 °C 1023.6 hPa ESE 4.7 km/h 9.7 km/h 79% 0.0 mm 0.00 W/m2
16:50 9.8 °C 6.5 °C 1023.9 hPa ESE 4.7 km/h 12.9 km/h 80% 0.0 mm 0.00 W/m2
16:55 9.8 °C 6.5 °C 1023.9 hPa ENE 7.9 km/h 14.5 km/h 80% 0.0 mm 0.00 W/m2
17:00 9.8 °C 6.5 °C 1023.9 hPa NE 3.2 km/h 8.0 km/h 80% 0.0 mm 0.00 W/m2
17:05 9.8 °C 6.5 °C 1023.9 hPa ESE 4.7 km/h 14.5 km/h 80% 0.0 mm 0.00 W/m2
17:10 9.8 °C 6.5 °C 1023.9 hPa East 11.1 km/h 22.5 km/h 80% 0.0 mm 0.00 W/m2
17:15 9.8 °C 6.5 °C 1023.9 hPa East 4.7 km/h 19.3 km/h 80% 0.0 mm 0.00 W/m2
17:20 9.8 °C 6.5 °C 1023.9 hPa ESE 3.2 km/h 16.1 km/h 80% 0.0 mm 0.00 W/m2
17:25 9.8 °C 6.5 °C 1023.9 hPa Calm   14.5 km/h 80% 0.0 mm 0.00 W/m2
17:30 9.7 °C 6.4 °C 1023.9 hPa ENE 3.2 km/h 8.0 km/h 80% 0.0 mm 0.00 W/m2
17:35 9.7 °C 6.4 °C 1023.9 hPa East 1.4 km/h 16.1 km/h 80% 0.0 mm 0.00 W/m2
17:40 9.7 °C 6.4 °C 1023.9 hPa ENE 7.9 km/h 12.9 km/h 80% 0.0 mm 0.00 W/m2
17:45 9.7 °C 6.4 °C 1023.9 hPa East 4.7 km/h 14.5 km/h 80% 0.0 mm 0.00 W/m2
17:50 9.7 °C 6.4 °C 1023.9 hPa ESE 7.9 km/h 9.7 km/h 80% 0.0 mm 0.00 W/m2
17:55 9.7 °C 6.4 °C 1023.9 hPa ENE 1.4 km/h 14.5 km/h 80% 0.0 mm 0.00 W/m2
18:00 9.7 °C 6.6 °C 1023.9 hPa East 11.1 km/h 16.1 km/h 81% 0.0 mm 0.00 W/m2
18:05 9.7 °C 6.6 °C 1023.9 hPa East 3.2 km/h 6.4 km/h 81% 0.0 mm 0.00 W/m2
18:10 9.7 °C 6.6 °C 1023.9 hPa East 9.7 km/h 11.3 km/h 81% 0.0 mm 0.00 W/m2
18:15 9.7 °C 6.6 °C 1023.9 hPa ESE 1.4 km/h 14.5 km/h 81% 0.0 mm 0.00 W/m2
18:20 9.6 °C 6.5 °C 1023.9 hPa ENE 1.4 km/h 11.3 km/h 81% 0.0 mm 0.00 W/m2
18:25 9.6 °C 6.5 °C 1023.9 hPa Calm   8.0 km/h 81% 0.0 mm 0.00 W/m2
18:30 9.6 °C 6.5 °C 1023.9 hPa ESE 11.1 km/h 11.3 km/h 81% 0.0 mm 0.00 W/m2
18:35 9.6 °C 6.5 °C 1023.9 hPa East 3.2 km/h 11.3 km/h 81% 0.0 mm 0.00 W/m2
18:40 9.6 °C 6.5 °C 1023.9 hPa East 9.7 km/h 11.3 km/h 81% 0.0 mm 0.00 W/m2
18:45 9.5 °C 6.4 °C 1023.9 hPa ESE 1.4 km/h 19.3 km/h 81% 0.0 mm 0.00 W/m2
18:50 9.5 °C 6.4 °C 1023.9 hPa East 3.2 km/h 11.3 km/h 81% 0.0 mm 0.00 W/m2
18:55 9.5 °C 6.4 °C 1023.9 hPa SE 6.4 km/h 16.1 km/h 81% 0.0 mm 0.00 W/m2
19:00 9.5 °C 6.4 °C 1023.9 hPa ESE 1.4 km/h 14.5 km/h 81% 0.0 mm 0.00 W/m2
19:05 9.4 °C 6.3 °C 1023.9 hPa Calm   8.0 km/h 81% 0.0 mm 0.00 W/m2
19:10 9.4 °C 6.3 °C 1023.9 hPa ESE 13.0 km/h 12.9 km/h 81% 0.0 mm 0.00 W/m2
19:15 9.4 °C 6.3 °C 1023.9 hPa East 9.7 km/h 17.7 km/h 81% 0.0 mm 0.00 W/m2
19:20 9.4 °C 6.3 °C 1024.3 hPa ESE 7.9 km/h 12.9 km/h 81% 0.0 mm 0.00 W/m2
19:25 9.4 °C 6.3 °C 1023.9 hPa Calm   11.3 km/h 81% 0.0 mm 0.00 W/m2
19:30 9.4 °C 6.3 °C 1024.3 hPa ESE 1.4 km/h 12.9 km/h 81% 0.0 mm 0.00 W/m2
19:35 9.4 °C 6.3 °C 1024.3 hPa ESE 6.4 km/h 17.7 km/h 81% 0.0 mm 0.00 W/m2
19:40 9.4 °C 6.3 °C 1024.3 hPa East 7.9 km/h 9.7 km/h 81% 0.0 mm 0.00 W/m2
19:45 9.3 °C 6.0 °C 1024.3 hPa ESE 9.7 km/h 16.1 km/h 80% 0.0 mm 0.00 W/m2
19:50 9.3 °C 6.2 °C 1024.3 hPa East 11.1 km/h 14.5 km/h 81% 0.0 mm 0.00 W/m2
19:55 9.3 °C 6.0 °C 1024.3 hPa ESE 6.4 km/h 16.1 km/h 80% 0.0 mm 0.00 W/m2
20:00 9.3 °C 6.0 °C 1024.3 hPa ESE 17.7 km/h 17.7 km/h 80% 0.0 mm 0.00 W/m2
20:05 9.3 °C 6.0 °C 1024.3 hPa East 3.2 km/h 4.8 km/h 80% 0.0 mm 0.00 W/m2
20:10 9.3 °C 6.0 °C 1024.6 hPa East 9.7 km/h 11.3 km/h 80% 0.0 mm 0.00 W/m2
20:15 9.3 °C 6.0 °C 1024.6 hPa East 11.1 km/h 14.5 km/h 80% 0.0 mm 0.00 W/m2
20:20 9.3 °C 6.0 °C 1024.6 hPa East 4.7 km/h 8.0 km/h 80% 0.0 mm 0.00 W/m2
20:25 9.2 °C 6.1 °C 1024.6 hPa East 7.9 km/h 16.1 km/h 81% 0.0 mm 0.00 W/m2
20:30 9.3 °C 6.0 °C 1024.6 hPa NE 3.2 km/h 12.9 km/h 80% 0.0 mm 0.00 W/m2
20:35 9.2 °C 5.9 °C 1024.6 hPa East 1.4 km/h 14.5 km/h 80% 0.0 mm 0.00 W/m2
20:40 9.2 °C 5.9 °C 1024.6 hPa NE 13.0 km/h 16.1 km/h 80% 0.0 mm 0.00 W/m2
20:45 9.2 °C 5.9 °C 1024.6 hPa ESE 3.2 km/h 14.5 km/h 80% 0.0 mm 0.00 W/m2
20:50 9.1 °C 5.8 °C 1024.6 hPa ENE 3.2 km/h 14.5 km/h 80% 0.0 mm 0.00 W/m2
20:55 9.1 °C 5.8 °C 1024.6 hPa ESE 9.7 km/h 24.1 km/h 80% 0.0 mm 0.00 W/m2
21:00 9.1 °C 5.8 °C 1024.6 hPa ESE 4.7 km/h 12.9 km/h 80% 0.0 mm 0.00 W/m2
21:05 9.1 °C 5.8 °C 1024.6 hPa SE 14.3 km/h 22.5 km/h 80% 0.0 mm 0.00 W/m2
21:10 9.1 °C 5.8 °C 1024.6 hPa ESE 6.4 km/h 11.3 km/h 80% 0.0 mm 0.00 W/m2
21:15 9.0 °C 5.7 °C 1024.3 hPa East 3.2 km/h 12.9 km/h 80% 0.0 mm 0.00 W/m2
21:20 9.0 °C 5.7 °C 1024.3 hPa ENE 14.3 km/h 20.9 km/h 80% 0.0 mm 0.00 W/m2
21:25 9.0 °C 5.7 °C 1024.3 hPa ENE 7.9 km/h 14.5 km/h 80% 0.0 mm 0.00 W/m2
21:30 8.9 °C 5.8 °C 1024.3 hPa East 1.4 km/h 14.5 km/h 81% 0.0 mm 0.00 W/m2
21:35 8.9 °C 5.8 °C 1024.3 hPa East 11.1 km/h 11.3 km/h 81% 0.0 mm 0.00 W/m2
21:40 8.9 °C 5.8 °C 1024.3 hPa East 6.4 km/h 12.9 km/h 81% 0.0 mm 0.00 W/m2
21:45 8.9 °C 5.8 °C 1024.6 hPa ESE 6.4 km/h 16.1 km/h 81% 0.0 mm 0.00 W/m2
21:50 8.9 °C 5.8 °C 1024.6 hPa ESE 3.2 km/h 14.5 km/h 81% 0.0 mm 0.00 W/m2
21:55 8.9 °C 5.8 °C 1024.3 hPa East 4.7 km/h 16.1 km/h 81% 0.0 mm 0.00 W/m2
22:00 8.8 °C 5.7 °C 1024.6 hPa ENE 7.9 km/h 9.7 km/h 81% 0.0 mm 0.00 W/m2
22:05 8.8 °C 5.7 °C 1024.6 hPa ESE 4.7 km/h 12.9 km/h 81% 0.0 mm 0.00 W/m2
22:10 8.8 °C 5.7 °C 1024.6 hPa ESE 7.9 km/h 12.9 km/h 81% 0.0 mm 0.00 W/m2
22:15 8.7 °C 5.6 °C 1024.3 hPa East 4.7 km/h 14.5 km/h 81% 0.0 mm 0.00 W/m2
22:20 8.7 °C 5.6 °C 1024.3 hPa NE 4.7 km/h 12.9 km/h 81% 0.0 mm 0.00 W/m2
22:25 8.7 °C 5.6 °C 1024.3 hPa Calm   11.3 km/h 81% 0.0 mm 0.00 W/m2
22:30 8.6 °C 5.5 °C 1024.3 hPa East 6.4 km/h 14.5 km/h 81% 0.0 mm 0.00 W/m2
22:35 8.6 °C 5.7 °C 1024.3 hPa ESE 4.7 km/h 12.9 km/h 82% 0.0 mm 0.00 W/m2
22:40 8.6 °C 5.7 °C 1024.3 hPa East 3.2 km/h 14.5 km/h 82% 0.0 mm 0.00 W/m2
22:45 8.6 °C 5.7 °C 1024.3 hPa East 7.9 km/h 12.9 km/h 82% 0.0 mm 0.00 W/m2
22:50 8.6 °C 5.7 °C 1024.3 hPa East 3.2 km/h 8.0 km/h 82% 0.0 mm 0.00 W/m2
22:55 8.6 °C 5.7 °C 1024.3 hPa ENE 4.7 km/h 12.9 km/h 82% 0.0 mm 0.00 W/m2
23:00 8.6 °C 5.7 °C 1024.3 hPa Calm   16.1 km/h 82% 0.0 mm 0.00 W/m2
23:05 8.5 °C 5.6 °C 1024.3 hPa East 4.7 km/h 11.3 km/h 82% 0.0 mm 0.00 W/m2
23:10 8.4 °C 5.7 °C 1024.3 hPa ENE 13.0 km/h 14.5 km/h 83% 0.0 mm 0.00 W/m2
23:15 8.4 °C 5.5 °C 1024.3 hPa ESE 4.7 km/h 9.7 km/h 82% 0.0 mm 0.00 W/m2
23:20 8.4 °C 5.7 °C 1024.3 hPa East 3.2 km/h 12.9 km/h 83% 0.0 mm 0.00 W/m2
23:25 8.5 °C 5.8 °C 1023.9 hPa East 9.7 km/h 20.9 km/h 83% 0.0 mm 0.00 W/m2
23:30 8.4 °C 5.7 °C 1023.9 hPa ENE 14.3 km/h 14.5 km/h 83% 0.0 mm 0.00 W/m2
23:35 8.5 °C 5.8 °C 1023.9 hPa NE 6.4 km/h 12.9 km/h 83% 0.0 mm 0.00 W/m2
23:40 8.5 °C 5.8 °C 1023.9 hPa ESE 6.4 km/h 19.3 km/h 83% 0.0 mm 0.00 W/m2
23:45 8.5 °C 5.6 °C 1023.9 hPa NE 7.9 km/h 19.3 km/h 82% 0.0 mm 0.00 W/m2
23:50 8.5 °C 5.6 °C 1023.9 hPa ENE 14.3 km/h 19.3 km/h 82% 0.0 mm 0.00 W/m2
23:55 8.6 °C 5.7 °C 1023.9 hPa East 4.7 km/h 17.7 km/h 82% 0.0 mm 0.00 W/m2